Location: Blangy-Tronville
(49.8790°N, 2.4226°E)
Time: 20:44:10
(UTC+00:00)

SWARM A - Pass Details

Date: 18 November 2025
Orbit: 426 x 429 km, 87.3° (Epoch: 05 December)

Event Time Altitude Azimuth Distance (km) Brightness Sun altitude
Rises 16:42:24 0° 356° (N) 2,408 7.8 -6.6°
Reaches altitude 10° 16:44:27 10° 355° (N) 1,535 6.8 -6.9°
Maximum altitude 16:47:45 76° 270° (W) 446 4.4 -7.4°
Drops below altitude 10° 16:51:02 10° 184° (S) 1,519 7.3 -7.8°
Sets 16:53:03 0° 183° (S) 2,379 8.3 -8.2°
